Flag for Germany Weather past 2 weeks in Mülheim / Ruhr, North Rhine-Westphalia, Germany

Now
39 °F

Drizzle. Partly sunny.


Feels Like: 32 °F
Forecast: 36 / 42 °F
Wind: 13 mph from South

Location: Duesseldorf

Current Time: Jan 26, 2015 at 12:11:51 PM

Latest Report: Jan 26, 2015 at 11:50 AM


Visibility: 3 mi

Pressure: 30.09 "Hg

Humidity: 100%

Dew point: 39 °F

Location of Mülheim / RuhrLocation

Historic Weather in Mülheim / Ruhr — Graph

°F

Mülheim / Ruhr temperature yesterday

Maximum temperature yesterday: 36 °F (at 11:20 AM)
Minimum temperature yesterday: 25 °F (at 2:20 AM)
Average temperature yesterday: 33 °F

Past Weeks' High & Low Weather Summary

 TemperatureHumidityPressure
High54 °F (Jan 13, 10:50 AM)100% (Jan 17, 8:20 AM)30.42 "Hg (Jan 17, 8:20 AM)
Low25 °F (Jan 25, 2:20 AM)52% (Jan 21, 1:20 PM)29.42 "Hg (Jan 15, 3:20 PM)
Average38 °F81%29.96 "Hg
* Reported Jan 11 10:20 AM — Jan 26 10:50 AM, Mülheim / Ruhr, Weather by CustomWeather, © 2014

Note: Actual official high and low records may vary slightly from our data, if they occured in-between our weather recording intervals... More about our weather records

Advertising

Mülheim / Ruhr weather history for previous 24 hours

 ConditionsComfort  
Time TempWeatherWind HumidityBarometerVisibility
10:50 AM
Jan 26
39 °FDrizzle. Fog.12 mph100%30.15 "Hg3 mi
10:20 AM39 °FDrizzle. Fog.12 mph100%30.15 "Hg2 mi
9:50 AM37 °FDrizzle. Fog.13 mph100%30.15 "Hg2 mi
9:20 AM37 °FDrizzle. Fog.13 mph100%30.15 "Hg2 mi
8:50 AM37 °FDrizzle. Fog.10 mph100%30.18 "Hg2 mi
8:20 AM37 °FDrizzle. Fog.8 mph100%30.18 "Hg2 mi
7:50 AM37 °FDrizzle. Low clouds.10 mph100%30.18 "Hg3 mi
7:20 AM37 °FDrizzle. Low clouds.9 mph100%30.18 "Hg4 mi
6:50 AM37 °FLow clouds.8 mph100%30.18 "Hg4 mi
6:20 AM37 °FPassing clouds.9 mph100%30.21 "Hg4 mi
5:50 AM37 °FPartly cloudy.8 mph100%30.21 "Hg4 mi
5:20 AM37 °FPartly cloudy.10 mph100%30.21 "Hg4 mi
4:20 AM37 °FDrizzle. Fog.9 mph100%30.24 "Hg2 mi
3:50 AM36 °FDrizzle. Fog.8 mph100%30.27 "Hg2 mi
3:20 AM36 °FDrizzle. Fog.8 mph100%30.27 "Hg2 mi
2:50 AM36 °FDrizzle. Fog.9 mph100%30.27 "Hg2 mi
2:20 AM36 °FDrizzle. Fog.9 mph100%30.30 "Hg1 mi
1:50 AM36 °FDrizzle. Fog.9 mph100%30.30 "Hg1 mi
1:20 AM36 °FDrizzle. Fog.9 mph100%30.30 "Hg1 mi
12:50 AM36 °FPassing clouds.9 mph100%30.30 "Hg4 mi
12:20 AM36 °FPartly cloudy.8 mph100%30.33 "Hg4 mi
11:50 PM
Jan 25
36 °FPartly cloudy.9 mph100%30.33 "Hg4 mi
11:20 PM36 °FLight rain. Partly cloudy.10 mph100%30.33 "Hg5 mi
10:20 PM36 °FDrizzle. Fog.9 mph100%30.33 "Hg2 mi
9:50 PM36 °FDrizzle. Fog.9 mph100%30.36 "Hg2 mi
9:20 PM36 °FDrizzle. Fog.8 mph100%30.36 "Hg2 mi
8:50 PM36 °FDrizzle. Fog.8 mph100%30.36 "Hg2 mi
8:20 PM36 °FDrizzle. Fog.7 mph100%30.36 "Hg2 mi
7:50 PM36 °FDrizzle. Fog.7 mph100%30.36 "Hg2 mi
7:20 PM36 °FDrizzle. Fog.6 mph100%30.39 "Hg1 mi
6:50 PM36 °FDrizzle. Fog.7 mph100%30.39 "Hg1 mi
6:20 PM36 °FDrizzle. Fog.7 mph100%30.39 "Hg1 mi
5:50 PM36 °FDrizzle. Fog.8 mph100%30.39 "Hg2 mi
5:20 PM36 °FDrizzle. Fog.7 mph100%30.36 "Hg2 mi
4:50 PM36 °FDrizzle. Fog.8 mph100%30.36 "Hg1 mi
4:20 PM36 °FDrizzle. Fog.7 mph93%30.39 "Hg2 mi
3:50 PM36 °FDrizzle. Fog.7 mph100%30.36 "Hg2 mi
3:20 PM36 °FDrizzle. Fog.7 mph100%30.39 "Hg2 mi
2:50 PM36 °FDrizzle. Fog.7 mph93%30.36 "Hg3 mi
2:20 PM36 °FDrizzle. Fog.7 mph93%30.39 "Hg3 mi
1:50 PM36 °FFog.7 mph93%30.39 "Hg3 mi
1:20 PM36 °FFog.7 mph93%30.39 "Hg3 mi
12:50 PM36 °FFog.7 mph93%30.39 "Hg3 mi
12:20 PM36 °FFog.7 mph93%30.39 "Hg3 mi
Weather by CustomWeather, © 2014

See weather overviewHow to use our weather pages